ProjectID,Date,Electric Generation,Electric Utility Import,Facility Electric Load
,YYYY-MM-DD,kW,kW,kW
408,2016-12-01,0.0,,0.0
408,2016-12-02,0.0,,0.0
408,2016-12-03,0.0,,0.0
408,2016-12-04,0.0,,0.0
408,2016-12-05,0.0,,0.0
408,2016-12-06,0.0,,0.0
408,2016-12-07,0.0,,0.0
408,2016-12-08,0.0,,0.0
408,2016-12-09,0.0,,0.0
408,2016-12-10,0.0,,0.0
408,2016-12-11,0.0,,0.0
408,2016-12-12,0.0,,0.0
408,2016-12-13,0.0,,0.0
408,2016-12-14,0.0,,0.0
408,2016-12-15,13.333374999999998,,13.333374999999998
408,2016-12-16,15.541708333333332,,15.541708333333332
408,2016-12-17,17.875,,17.875
408,2016-12-18,72.91666666666667,,72.91666666666667
408,2016-12-19,266.4166666666667,,266.4166666666667
408,2016-12-20,262.5416666666667,,262.5416666666667
408,2016-12-21,140.04166666666666,,140.04166666666666
408,2016-12-22,1.625,,1.625
408,2016-12-23,137.25,,137.25
408,2016-12-24,33.5,,33.5
408,2016-12-25,124.625,,124.625
408,2016-12-26,49.375,,49.375
408,2016-12-27,141.45833333333334,,141.45833333333334
408,2016-12-28,20.708333333333332,,20.708333333333332
408,2016-12-29,5.5,,5.5
408,2016-12-30,8.166666666666666,,8.166666666666666
408,2016-12-31,58.208333333333336,,58.208333333333336
408,2017-01-01,356.375,,356.375
408,2017-01-02,54.625,,54.625
408,2017-01-03,45.291666666666664,,45.291666666666664
408,2017-01-04,136.0,,136.0
408,2017-01-05,1.125,,1.125
408,2017-01-06,14.583333333333334,,14.583333333333334
408,2017-01-07,19.791666666666668,,19.791666666666668
408,2017-01-08,13.916666666666666,,13.916666666666666
408,2017-01-09,13.416666666666666,,13.416666666666666
408,2017-01-10,40.166666666666664,,40.166666666666664
408,2017-01-11,313.9166666666667,,313.9166666666667
408,2017-01-12,35.458333333333336,,35.458333333333336
408,2017-01-13,225.79166666666666,,225.79166666666666
408,2017-01-14,64.125,,64.125
408,2017-01-15,50.208333333333336,,50.208333333333336
408,2017-01-16,395.25,,395.25
408,2017-01-17,32.875,,32.875
408,2017-01-18,1.2083333333333333,,1.2083333333333333
408,2017-01-19,93.58333333333333,,93.58333333333333
408,2017-01-20,67.58333333333333,,67.58333333333333
408,2017-01-21,264.3333333333333,,264.3333333333333
408,2017-01-22,331.875,,331.875
408,2017-01-23,72.125,,72.125
408,2017-01-24,2.2916666666666665,,2.2916666666666665
408,2017-01-25,15.083333333333334,,15.083333333333334
408,2017-01-26,76.91666666666667,,76.91666666666667
408,2017-01-27,12.291666666666666,,12.291666666666666
408,2017-01-28,16.791666666666668,,16.791666666666668
408,2017-01-29,23.375,,23.375
408,2017-01-30,29.916666666666668,,29.916666666666668
408,2017-01-31,3.9166666666666665,,3.9166666666666665
408,2017-02-01,148.79166666666666,,148.79166666666666
408,2017-02-02,32.708333333333336,,32.708333333333336
408,2017-02-03,19.75,,19.75
408,2017-02-04,97.16666666666667,,97.16666666666667
408,2017-02-05,110.45833333333333,,110.45833333333333
408,2017-02-06,260.4166666666667,,260.4166666666667
408,2017-02-07,64.5,,64.5
408,2017-02-08,191.20833333333334,,191.20833333333334
408,2017-02-09,9.375,,9.375
408,2017-02-10,15.5,,15.5
408,2017-02-11,94.125,,94.125
408,2017-02-12,0.25,,0.25
408,2017-02-13,0.5416666666666666,,0.5416666666666666
408,2017-02-14,295.125,,295.125
408,2017-02-15,120.125,,120.125
408,2017-02-16,19.0,,19.0
408,2017-02-17,222.45833333333334,,222.45833333333334
408,2017-02-18,492.7083333333333,,492.7083333333333
408,2017-02-19,548.0416666666666,,548.0416666666666
408,2017-02-20,0.041666666666666664,,0.041666666666666664
408,2017-02-21,264.1666666666667,,264.1666666666667
408,2017-02-22,382.0416666666667,,382.0416666666667
408,2017-02-23,384.5,,384.5
408,2017-02-24,455.4166666666667,,455.4166666666667
408,2017-02-25,50.5,,50.5
408,2017-02-26,110.625,,110.625
408,2017-02-27,518.7083333333334,,518.7083333333334
408,2017-02-28,400.7916666666667,,400.7916666666667
408,2017-03-01,133.83333333333334,,133.83333333333334
408,2017-03-02,367.4166666666667,,367.4166666666667
408,2017-03-03,152.16666666666666,,152.16666666666666
408,2017-03-04,21.875,,21.875
408,2017-03-05,150.41666666666666,,150.41666666666666
408,2017-03-06,342.7916666666667,,342.7916666666667
408,2017-03-07,119.95833333333333,,119.95833333333333
408,2017-03-08,437.5416666666667,,437.5416666666667
408,2017-03-09,505.875,,505.875
408,2017-03-10,162.0,,162.0
408,2017-03-11,69.58333333333333,,69.58333333333333
408,2017-03-12,275.625,,275.625
408,2017-03-13,363.25,,363.25
408,2017-03-14,0.0,,0.0
408,2017-03-15,0.08333333333333333,,0.08333333333333333
408,2017-03-16,62.375,,62.375
408,2017-03-17,402.2083333333333,,402.2083333333333
408,2017-03-18,76.625,,76.625
408,2017-03-19,392.4583333333333,,392.4583333333333
408,2017-03-20,307.625,,307.625
408,2017-03-21,516.5833333333334,,516.5833333333334
408,2017-03-22,450.1666666666667,,450.1666666666667
408,2017-03-23,705.75,,705.75
408,2017-03-24,211.41666666666666,,211.41666666666666
408,2017-03-25,88.70833333333333,,88.70833333333333
408,2017-03-26,158.33333333333334,,158.33333333333334
408,2017-03-27,197.08333333333334,,197.08333333333334
408,2017-03-28,131.08333333333334,,131.08333333333334
408,2017-03-29,413.0833333333333,,413.0833333333333
408,2017-03-30,297.7083333333333,,297.7083333333333
408,2017-03-31,86.70833333333333,,86.70833333333333
408,2017-04-01,62.291666666666664,,62.291666666666664
408,2017-04-02,557.8333333333334,,557.8333333333334
408,2017-04-03,399.4166666666667,,399.4166666666667
408,2017-04-04,235.75,,235.75
408,2017-04-05,324.6666666666667,,324.6666666666667
408,2017-04-06,75.29166666666667,,75.29166666666667
408,2017-04-07,62.5,,62.5
408,2017-04-08,623.4166666666666,,623.4166666666666
408,2017-04-09,675.3333333333334,,675.3333333333334
408,2017-04-10,592.0833333333334,,592.0833333333334
408,2017-04-11,394.9166666666667,,394.9166666666667
408,2017-04-12,434.8333333333333,,434.8333333333333
408,2017-04-13,450.5416666666667,,450.5416666666667
408,2017-04-14,736.5416666666666,,736.5416666666666
408,2017-04-15,429.1666666666667,,429.1666666666667
408,2017-04-16,457.4583333333333,,457.4583333333333
408,2017-04-17,640.375,,640.375
408,2017-04-18,706.5,,706.5
408,2017-04-19,202.66666666666666,,202.66666666666666
408,2017-04-20,152.875,,152.875
408,2017-04-21,283.5416666666667,,283.5416666666667
408,2017-04-22,205.45833333333334,,205.45833333333334
408,2017-04-23,744.4166666666666,,744.4166666666666
408,2017-04-24,760.5416666666666,,760.5416666666666
408,2017-04-25,273.5,,273.5
408,2017-04-26,526.5,,526.5
408,2017-04-27,573.2916666666666,,573.2916666666666
408,2017-04-28,682.125,,682.125
408,2017-04-29,210.70833333333334,,210.70833333333334
408,2017-04-30,343.0833333333333,,343.0833333333333
408,2017-05-01,472.0,,472.0
408,2017-05-02,320.7916666666667,,320.7916666666667
408,2017-05-03,517.5,,517.5
408,2017-05-04,287.125,,287.125
408,2017-05-05,158.5,,158.5
408,2017-05-06,228.16666666666666,,228.16666666666666
408,2017-05-07,267.625,,267.625
408,2017-05-08,423.5833333333333,,423.5833333333333
408,2017-05-09,574.4166666666666,,574.4166666666666
408,2017-05-10,685.125,,685.125
408,2017-05-11,590.5833333333334,,590.5833333333334
408,2017-05-12,537.125,,537.125
408,2017-05-13,185.29166666666666,,185.29166666666666
408,2017-05-14,398.2916666666667,,398.2916666666667
408,2017-05-15,392.75,,392.75
408,2017-05-16,453.5416666666667,,453.5416666666667
408,2017-05-17,728.25,,728.25
408,2017-05-18,525.3333333333334,,525.3333333333334
408,2017-05-19,634.6666666666666,,634.6666666666666
408,2017-05-20,705.4583333333334,,705.4583333333334
408,2017-05-21,419.625,,419.625
408,2017-05-22,283.5,,283.5
408,2017-05-23,657.9166666666666,,657.9166666666666
408,2017-05-24,648.9583333333334,,648.9583333333334
408,2017-05-25,185.5,,185.5
408,2017-05-26,242.66666666666666,,242.66666666666666
408,2017-05-27,273.0,,273.0
408,2017-05-28,525.4583333333334,,525.4583333333334
408,2017-05-29,320.375,,320.375
408,2017-05-30,273.625,,273.625
408,2017-05-31,517.75,,517.75
408,2017-06-01,615.375,,615.375
408,2017-06-02,560.4583333333334,,560.4583333333334
408,2017-06-03,745.5416666666666,,745.5416666666666
408,2017-06-04,194.66666666666666,,194.66666666666666
408,2017-06-05,371.7083333333333,,371.7083333333333
408,2017-06-06,248.0,,248.0
408,2017-06-07,635.1666666666666,,635.1666666666666
408,2017-06-08,685.9166666666666,,685.9166666666666
408,2017-06-09,244.54166666666666,,244.54166666666666
408,2017-06-10,614.0833333333334,,614.0833333333334
408,2017-06-11,756.5416666666666,,756.5416666666666
408,2017-06-12,678.7916666666666,,678.7916666666666
408,2017-06-13,642.2916666666666,,642.2916666666666
408,2017-06-14,775.7916666666666,,775.7916666666666
408,2017-06-15,321.3333333333333,,321.3333333333333
408,2017-06-16,331.1666666666667,,331.1666666666667
408,2017-06-17,598.0833333333334,,598.0833333333334
408,2017-06-18,619.7916666666666,,619.7916666666666
408,2017-06-19,46.166666666666664,,46.166666666666664
408,2017-06-20,98.70833333333333,,98.70833333333333
408,2017-06-21,623.1666666666666,,623.1666666666666
408,2017-06-22,640.25,,640.25
408,2017-06-23,333.625,,333.625
408,2017-06-24,649.375,,649.375
408,2017-06-25,554.25,,554.25
408,2017-06-26,455.8333333333333,,455.8333333333333
408,2017-06-27,494.375,,494.375
408,2017-06-28,643.9583333333334,,643.9583333333334
408,2017-06-29,473.375,,473.375
408,2017-06-30,417.2916666666667,,417.2916666666667
408,2017-07-01,387.7083333333333,,387.7083333333333
408,2017-07-02,565.2916666666666,,565.2916666666666
408,2017-07-03,743.7083333333334,,743.7083333333334
408,2017-07-04,639.5416666666666,,639.5416666666666
408,2017-07-05,704.3333333333334,,704.3333333333334
408,2017-07-06,324.5833333333333,,324.5833333333333
408,2017-07-07,564.875,,564.875
408,2017-07-08,517.0,,517.0
408,2017-07-09,633.25,,633.25
408,2017-07-10,560.5416666666666,,560.5416666666666
408,2017-07-11,559.875,,559.875
408,2017-07-12,396.9166666666667,,396.9166666666667
408,2017-07-13,320.8333333333333,,320.8333333333333
408,2017-07-14,381.1666666666667,,381.1666666666667
408,2017-07-15,369.5,,369.5
408,2017-07-16,616.1666666666666,,616.1666666666666
408,2017-07-17,396.3333333333333,,396.3333333333333
408,2017-07-18,680.6666666666666,,680.6666666666666
408,2017-07-19,680.4583333333334,,680.4583333333334
408,2017-07-20,408.7916666666667,,408.7916666666667
408,2017-07-21,672.6666666666666,,672.6666666666666
408,2017-07-22,345.0,,345.0
408,2017-07-23,434.625,,434.625
408,2017-07-24,386.1666666666667,,386.1666666666667
408,2017-07-25,324.5416666666667,,324.5416666666667
408,2017-07-26,468.8333333333333,,468.8333333333333
408,2017-07-27,305.4583333333333,,305.4583333333333
408,2017-07-28,498.75,,498.75
408,2017-07-29,671.9583333333334,,671.9583333333334
408,2017-07-30,753.375,,753.375
408,2017-07-31,743.125,,743.125
408,2017-08-01,684.375,,684.375
408,2017-08-02,592.0416666666666,,592.0416666666666
408,2017-08-03,643.5416666666666,,643.5416666666666
408,2017-08-04,590.75,,590.75
408,2017-08-05,354.0,,354.0
408,2017-08-06,652.7916666666666,,652.7916666666666
408,2017-08-07,581.375,,581.375
408,2017-08-08,584.4583333333334,,584.4583333333334
408,2017-08-09,623.375,,623.375
408,2017-08-10,630.5416666666666,,630.5416666666666
408,2017-08-11,281.9583333333333,,281.9583333333333
408,2017-08-12,432.5,,432.5
408,2017-08-13,597.2083333333334,,597.2083333333334
408,2017-08-14,640.125,,640.125
408,2017-08-15,494.625,,494.625
408,2017-08-16,575.9166666666666,,575.9166666666666
408,2017-08-17,620.125,,620.125
408,2017-08-18,378.875,,378.875
408,2017-08-19,387.5,,387.5
408,2017-08-20,648.5,,648.5
408,2017-08-21,463.625,,463.625
408,2017-08-22,449.4583333333333,,449.4583333333333
408,2017-08-23,666.2083333333334,,666.2083333333334
408,2017-08-24,594.5833333333334,,594.5833333333334
408,2017-08-25,653.125,,653.125
408,2017-08-26,698.625,,698.625
408,2017-08-27,702.5,,702.5
408,2017-08-28,514.1666666666666,,514.1666666666666
408,2017-08-29,393.0416666666667,,393.0416666666667
408,2017-08-30,580.875,,580.875
408,2017-08-31,383.0,,383.0
408,2017-09-01,626.5,,626.5
408,2017-09-02,523.25,,523.25
408,2017-09-03,191.45833333333334,,191.45833333333334
408,2017-09-04,670.0833333333334,,670.0833333333334
408,2017-09-05,137.66666666666666,,137.66666666666666
408,2017-09-06,185.33333333333334,,185.33333333333334
408,2017-09-07,418.6666666666667,,418.6666666666667
408,2017-09-08,369.2083333333333,,369.2083333333333
408,2017-09-09,267.8333333333333,,267.8333333333333
408,2017-09-10,612.0,,612.0
408,2017-09-11,682.5833333333334,,682.5833333333334
408,2017-09-12,626.9583333333334,,626.9583333333334
408,2017-09-13,386.125,,386.125
408,2017-09-14,340.3333333333333,,340.3333333333333
408,2017-09-15,584.7083333333334,,584.7083333333334
408,2017-09-16,542.5833333333334,,542.5833333333334
408,2017-09-17,517.8333333333334,,517.8333333333334
408,2017-09-18,636.0,,636.0
408,2017-09-19,598.6666666666666,,598.6666666666666
408,2017-09-20,644.4583333333334,,644.4583333333334
408,2017-09-21,494.3333333333333,,494.3333333333333
408,2017-09-22,525.9166666666666,,525.9166666666666
408,2017-09-23,639.6666666666666,,639.6666666666666
408,2017-09-24,621.7083333333334,,621.7083333333334
408,2017-09-25,613.2916666666666,,613.2916666666666
408,2017-09-26,510.4583333333333,,510.4583333333333
408,2017-09-27,536.0833333333334,,536.0833333333334
408,2017-09-28,287.5,,287.5
408,2017-09-29,324.5,,324.5
408,2017-09-30,250.08333333333334,,250.08333333333334
408,2017-10-01,651.2083333333334,,651.2083333333334
408,2017-10-02,645.125,,645.125
408,2017-10-03,636.4166666666666,,636.4166666666666
408,2017-10-04,571.0416666666666,,571.0416666666666
408,2017-10-05,486.25,,486.25
408,2017-10-06,0.0,,0.0
408,2017-10-07,322.5833333333333,,322.5833333333333
408,2017-10-08,252.29166666666666,,252.29166666666666
408,2017-10-09,142.54166666666666,,142.54166666666666
408,2017-10-10,463.0416666666667,,463.0416666666667
408,2017-10-11,131.95833333333334,,131.95833333333334
408,2017-10-12,243.91666666666666,,243.91666666666666
408,2017-10-13,225.875,,225.875
408,2017-10-14,283.0416666666667,,283.0416666666667
408,2017-10-15,493.5833333333333,,493.5833333333333
408,2017-10-16,225.54166666666666,,225.54166666666666
408,2017-10-17,601.75,,601.75
408,2017-10-18,579.8333333333334,,579.8333333333334
408,2017-10-19,516.0416666666666,,516.0416666666666
408,2017-10-20,583.5416666666666,,583.5416666666666
408,2017-10-21,437.0833333333333,,437.0833333333333
408,2017-10-22,363.0416666666667,,363.0416666666667
408,2017-10-23,234.75,,234.75
408,2017-10-24,342.6666666666667,,342.6666666666667
408,2017-10-25,534.4583333333334,,534.4583333333334
408,2017-10-26,133.08333333333334,,133.08333333333334
408,2017-10-27,474.9166666666667,,474.9166666666667
408,2017-10-28,404.375,,404.375
408,2017-10-29,39.0,,39.0
408,2017-10-30,181.66666666666666,,181.66666666666666
408,2017-10-31,333.0833333333333,,333.0833333333333
408,2017-11-01,64.91666666666667,,64.91666666666667
408,2017-11-02,185.95833333333334,,185.95833333333334
408,2017-11-03,56.458333333333336,,56.458333333333336
408,2017-11-04,269.5,,269.5
408,2017-11-05,41.833333333333336,,41.833333333333336
408,2017-11-06,35.083333333333336,,35.083333333333336
408,2017-11-07,88.70833333333333,,88.70833333333333
408,2017-11-08,539.5416666666666,,539.5416666666666
408,2017-11-09,161.625,,161.625
408,2017-11-10,62.375,,62.375
408,2017-11-11,383.125,,383.125
408,2017-11-12,391.5416666666667,,391.5416666666667
408,2017-11-13,239.75,,239.75
408,2017-11-14,60.75,,60.75
408,2017-11-15,400.4583333333333,,400.4583333333333
408,2017-11-16,151.625,,151.625
408,2017-11-17,427.625,,427.625
408,2017-11-18,41.291666666666664,,41.291666666666664
408,2017-11-19,37.791666666666664,,37.791666666666664
408,2017-11-20,83.08333333333333,,83.08333333333333
408,2017-11-21,371.5,,371.5
408,2017-11-22,68.54166666666667,,68.54166666666667
408,2017-11-23,209.41666666666666,,209.41666666666666
408,2017-11-24,464.4166666666667,,464.4166666666667
408,2017-11-25,192.25,,192.25
408,2017-11-26,66.75,,66.75
408,2017-11-27,102.16666666666667,,102.16666666666667
408,2017-11-28,447.125,,447.125
408,2017-11-29,260.5833333333333,,260.5833333333333
408,2017-11-30,342.7916666666667,,342.7916666666667
408,2017-12-01,103.54166666666667,,103.54166666666667
408,2017-12-02,134.75,,134.75
408,2017-12-03,355.875,,355.875
408,2017-12-04,276.625,,276.625
408,2017-12-05,27.708333333333332,,27.708333333333332
408,2017-12-06,368.4583333333333,,368.4583333333333
408,2017-12-07,77.95833333333333,,77.95833333333333
408,2017-12-08,71.25,,71.25
408,2017-12-09,67.45833333333333,,67.45833333333333
408,2017-12-10,41.041666666666664,,41.041666666666664
408,2017-12-11,54.458333333333336,,54.458333333333336
408,2017-12-12,3.2083333333333335,,3.2083333333333335
408,2017-12-13,54.791666666666664,,54.791666666666664
408,2017-12-14,24.125,,24.125
408,2017-12-15,35.333333333333336,,35.333333333333336
408,2017-12-16,7.458333333333333,,7.458333333333333
408,2017-12-17,3.5416666666666665,,3.5416666666666665
408,2017-12-18,0.9583333333333334,,0.9583333333333334
408,2017-12-19,308.6666666666667,,308.6666666666667
408,2017-12-20,91.16666666666667,,91.16666666666667
408,2017-12-21,336.2916666666667,,336.2916666666667
408,2017-12-22,16.541666666666668,,16.541666666666668
408,2017-12-23,26.041666666666668,,26.041666666666668
408,2017-12-24,86.70833333333333,,86.70833333333333
408,2017-12-25,108.66666666666667,,108.66666666666667
408,2017-12-26,17.041666666666668,,17.041666666666668
408,2017-12-27,26.875,,26.875
408,2017-12-28,30.458333333333332,,30.458333333333332
408,2017-12-29,20.0,,20.0
408,2017-12-30,2.5,,2.5
408,2017-12-31,1.125,,1.125
408,2018-01-01,2.5,,2.5
408,2018-01-02,1.25,,1.25
408,2018-01-03,7.916666666666667,,7.916666666666667
408,2018-01-04,0.20833333333333334,,0.20833333333333334
408,2018-01-05,8.375,,8.375
408,2018-01-06,15.375,,15.375
408,2018-01-07,31.583333333333332,,31.583333333333332
408,2018-01-08,10.416666666666666,,10.416666666666666
408,2018-01-09,13.916666666666666,,13.916666666666666
408,2018-01-10,236.16666666666666,,236.16666666666666
408,2018-01-11,200.625,,200.625
408,2018-01-12,49.083333333333336,,49.083333333333336
408,2018-01-13,20.208333333333332,,20.208333333333332
408,2018-01-14,50.666666666666664,,50.666666666666664
408,2018-01-15,21.916666666666668,,21.916666666666668
408,2018-01-16,10.416666666666666,,10.416666666666666
408,2018-01-17,6.958333333333333,,6.958333333333333
408,2018-01-18,9.541666666666666,,9.541666666666666
408,2018-01-19,79.83333333333333,,79.83333333333333
408,2018-01-20,408.0416666666667,,408.0416666666667
408,2018-01-21,213.125,,213.125
408,2018-01-22,70.95833333333333,,70.95833333333333
408,2018-01-23,97.29166666666667,,97.29166666666667
408,2018-01-24,82.58333333333333,,82.58333333333333
408,2018-01-25,453.1666666666667,,453.1666666666667
408,2018-01-26,495.6666666666667,,495.6666666666667
408,2018-01-27,190.125,,190.125
408,2018-01-28,398.5,,398.5
408,2018-01-29,283.5416666666667,,283.5416666666667
408,2018-01-30,43.333333333333336,,43.333333333333336
408,2018-01-31,59.208333333333336,,59.208333333333336
408,2018-02-01,216.83333333333334,,216.83333333333334
408,2018-02-02,10.166666666666666,,10.166666666666666
408,2018-02-03,40.458333333333336,,40.458333333333336
408,2018-02-04,13.875,,13.875
408,2018-02-05,43.0,,43.0
408,2018-02-06,25.541666666666668,,25.541666666666668
408,2018-02-07,4.5,,4.5
408,2018-02-08,9.0,,9.0
408,2018-02-09,2.4583333333333335,,2.4583333333333335
408,2018-02-10,27.333333333333332,,27.333333333333332
408,2018-02-11,89.04166666666667,,89.04166666666667
408,2018-02-12,507.625,,507.625
408,2018-02-13,476.5,,476.5
408,2018-02-14,403.7916666666667,,403.7916666666667
408,2018-02-15,272.3333333333333,,272.3333333333333
408,2018-02-16,50.083333333333336,,50.083333333333336
408,2018-02-17,291.875,,291.875
408,2018-02-18,104.70833333333333,,104.70833333333333
408,2018-02-19,121.0,,121.0
408,2018-02-20,317.9583333333333,,317.9583333333333
408,2018-02-21,196.625,,196.625
408,2018-02-22,4.083333333333333,,4.083333333333333
408,2018-02-23,10.375,,10.375
408,2018-02-24,122.375,,122.375
408,2018-02-25,85.83333333333333,,85.83333333333333
408,2018-02-26,591.375,,591.375
408,2018-02-27,585.8333333333334,,585.8333333333334
408,2018-02-28,256.9583333333333,,256.9583333333333
408,2018-03-01,170.91666666666666,,170.91666666666666
408,2018-03-02,5.166666666666667,,5.166666666666667
408,2018-03-03,25.541666666666668,,25.541666666666668
408,2018-03-04,199.54166666666666,,199.54166666666666
408,2018-03-05,266.6666666666667,,266.6666666666667
408,2018-03-06,522.0416666666666,,522.0416666666666
408,2018-03-07,9.0,,9.0
408,2018-03-08,198.29166666666666,,198.29166666666666
408,2018-03-09,161.70833333333334,,161.70833333333334
408,2018-03-10,97.33333333333333,,97.33333333333333
408,2018-03-11,270.5833333333333,,270.5833333333333
408,2018-03-12,362.875,,362.875
408,2018-03-13,8.333333333333334,,8.333333333333334
408,2018-03-14,3.625,,3.625
408,2018-03-15,75.95833333333333,,75.95833333333333
408,2018-03-16,67.0,,67.0
408,2018-03-17,453.9166666666667,,453.9166666666667
408,2018-03-18,489.0,,489.0
408,2018-03-19,673.125,,673.125
408,2018-03-20,525.5,,525.5
408,2018-03-21,372.25,,372.25
408,2018-03-22,640.1666666666666,,640.1666666666666
408,2018-03-23,499.7083333333333,,499.7083333333333
408,2018-03-24,451.1666666666667,,451.1666666666667
408,2018-03-25,339.25,,339.25
408,2018-03-26,667.5416666666666,,667.5416666666666
408,2018-03-27,234.41666666666666,,234.41666666666666
408,2018-03-28,180.29166666666666,,180.29166666666666
408,2018-03-29,99.83333333333333,,99.83333333333333
408,2018-03-30,123.875,,123.875
408,2018-03-31,654.9583333333334,,654.9583333333334
408,2018-04-01,420.7916666666667,,420.7916666666667
408,2018-04-02,678.125,,678.125
408,2018-04-03,76.54166666666667,,76.54166666666667
408,2018-04-04,227.20833333333334,,227.20833333333334
408,2018-04-05,409.2083333333333,,409.2083333333333
408,2018-04-06,203.5,,203.5
408,2018-04-07,251.54166666666666,,251.54166666666666
408,2018-04-08,426.2083333333333,,426.2083333333333
408,2018-04-09,617.75,,617.75
408,2018-04-10,447.0416666666667,,447.0416666666667
408,2018-04-11,378.2083333333333,,378.2083333333333
408,2018-04-12,180.79166666666666,,180.79166666666666
408,2018-04-13,412.9583333333333,,412.9583333333333
408,2018-04-14,304.1666666666667,,304.1666666666667
408,2018-04-15,135.08333333333334,,135.08333333333334
408,2018-04-16,114.91666666666667,,114.91666666666667
408,2018-04-17,229.20833333333334,,229.20833333333334
408,2018-04-18,143.95833333333334,,143.95833333333334
408,2018-04-19,200.41666666666666,,200.41666666666666
408,2018-04-20,237.33333333333334,,237.33333333333334
408,2018-04-21,769.25,,769.25
408,2018-04-22,765.5416666666666,,765.5416666666666
408,2018-04-23,763.1666666666666,,763.1666666666666
408,2018-04-24,673.0833333333334,,673.0833333333334
408,2018-04-25,215.125,,215.125
408,2018-04-26,344.9166666666667,,344.9166666666667
408,2018-04-27,329.9583333333333,,329.9583333333333
408,2018-04-28,387.5,,387.5
408,2018-04-29,288.0416666666667,,288.0416666666667
408,2018-04-30,608.125,,608.125
408,2018-05-01,685.625,,685.625
408,2018-05-02,705.1666666666666,,705.1666666666666
408,2018-05-03,432.0833333333333,,432.0833333333333
408,2018-05-04,385.625,,385.625
408,2018-05-05,659.25,,659.25
408,2018-05-06,306.1666666666667,,306.1666666666667
408,2018-05-07,576.25,,576.25
408,2018-05-08,604.3333333333334,,604.3333333333334
408,2018-05-09,722.9166666666666,,722.9166666666666
408,2018-05-10,376.0,,376.0
408,2018-05-11,643.3333333333334,,643.3333333333334
408,2018-05-12,89.66666666666667,,89.66666666666667